Radiation Dose at Monitoring Post of Fukushima Daini Nuclear Power Station
Date,Time,MP-1(microSv/h),MP-2(microSv/h),MP-3(microSv/h),MP-4(microSv/h),MP-5(microSv/h),MP-6(microSv/h),MP-7(microSv/h),Wind Direction,Wind Velocity(m/s),Rain
2023/02/26,00:00,0.156,0.141,0.219,0.215,0.214,0.122,0.078,north,2.2,No
2023/02/26,00:10,0.156,0.140,0.220,0.215,0.215,0.122,0.079,north,3.4,No
2023/02/26,00:20,0.156,0.141,0.220,0.214,0.215,0.123,0.079,north-northeast,2.5,No
2023/02/26,00:30,0.156,0.141,0.220,0.215,0.214,0.123,0.078,north,2.9,No
2023/02/26,00:40,0.156,0.142,0.221,0.215,0.214,0.122,0.079,north-northeast,2.2,No
2023/02/26,00:50,0.155,0.140,0.220,0.216,0.214,0.124,0.079,north-northeast,3.6,No
2023/02/26,01:00,0.155,0.140,0.220,0.215,0.214,0.123,0.079,north,4.2,No
2023/02/26,01:10,0.156,0.141,0.219,0.215,0.214,0.123,0.079,northwest,2.4,No
2023/02/26,01:20,0.156,0.142,0.220,0.215,0.213,0.123,0.078,north-northwest,2.3,No
2023/02/26,01:30,0.156,0.140,0.220,0.215,0.214,0.123,0.078,northwest,2.3,No
2023/02/26,01:40,0.155,0.142,0.220,0.216,0.213,0.124,0.078,north-northeast,2.1,No
2023/02/26,01:50,0.156,0.141,0.219,0.215,0.214,0.123,0.079,north-northwest,3.5,No
2023/02/26,02:00,0.156,0.141,0.219,0.215,0.214,0.123,0.079,north-northwest,3.8,No
2023/02/26,02:10,0.156,0.141,0.219,0.216,0.214,0.123,0.078,north-northwest,2.6,No
2023/02/26,02:20,0.156,0.141,0.219,0.216,0.214,0.123,0.078,north-northwest,0.9,No
2023/02/26,02:30,0.157,0.142,0.219,0.215,0.214,0.124,0.078,north-northwest,0.7,No
2023/02/26,02:40,0.156,0.141,0.221,0.215,0.215,0.123,0.079,west-northwest,1.0,No
2023/02/26,02:50,0.156,0.140,0.220,0.215,0.214,0.123,0.079,-,CALM,No
2023/02/26,03:00,0.156,0.140,0.219,0.216,0.215,0.123,0.079,-,CALM,No
2023/02/26,03:10,0.156,0.141,0.220,0.215,0.215,0.123,0.079,north,2.0,No
2023/02/26,03:20,0.156,0.141,0.220,0.215,0.214,0.122,0.079,north,3.4,No
2023/02/26,03:30,0.156,0.141,0.221,0.216,0.213,0.124,0.079,north-northeast,3.5,No
2023/02/26,03:40,0.156,0.141,0.221,0.215,0.215,0.123,0.079,north,3.4,No
2023/02/26,03:50,0.155,0.141,0.219,0.215,0.213,0.124,0.078,north,3.6,No
2023/02/26,04:00,0.156,0.141,0.220,0.215,0.214,0.123,0.078,north-northwest,3.2,No
2023/02/26,04:10,0.155,0.141,0.220,0.215,0.215,0.123,0.079,north-northwest,3.8,No
2023/02/26,04:20,0.156,0.141,0.220,0.214,0.214,0.122,0.078,north,2.5,No
2023/02/26,04:30,0.156,0.142,0.219,0.215,0.214,0.123,0.079,north-northwest,2.9,No
2023/02/26,04:40,0.156,0.141,0.219,0.216,0.214,0.123,0.078,northwest,3.7,No
2023/02/26,04:50,0.156,0.140,0.220,0.215,0.214,0.123,0.079,northwest,4.3,No
2023/02/26,05:00,0.155,0.141,0.219,0.215,0.215,0.123,0.079,northwest,4.6,No
2023/02/26,05:10,0.155,0.140,0.219,0.215,0.215,0.123,0.078,northwest,4.2,No
2023/02/26,05:20,0.156,0.140,0.219,0.215,0.214,0.124,0.079,west-northwest,4.4,No
2023/02/26,05:30,0.155,0.141,0.220,0.214,0.214,0.123,0.078,northwest,4.2,No
2023/02/26,05:40,0.156,0.141,0.220,0.215,0.213,0.123,0.078,northwest,2.8,No
2023/02/26,05:50,0.156,0.140,0.220,0.215,0.214,0.123,0.079,west-northwest,5.1,No
2023/02/26,06:00,0.156,0.141,0.219,0.214,0.215,0.123,0.079,northwest,5.9,No
2023/02/26,06:10,0.156,0.140,0.220,0.215,0.214,0.123,0.078,northwest,3.2,No
2023/02/26,06:20,0.156,0.140,0.219,0.215,0.214,0.123,0.079,west-northwest,3.2,No
2023/02/26,06:30,0.155,0.140,0.218,0.215,0.214,0.123,0.079,west-northwest,4.0,No
2023/02/26,06:40,0.155,0.141,0.219,0.214,0.214,0.123,0.078,northwest,2.9,No
2023/02/26,06:50,0.156,0.141,0.220,0.215,0.215,0.123,0.079,west-northwest,3.0,No
2023/02/26,07:00,0.156,0.141,0.219,0.214,0.213,0.123,0.078,northwest,3.8,No
2023/02/26,07:10,0.156,0.141,0.219,0.215,0.215,0.124,0.079,northwest,3.9,No
2023/02/26,07:20,0.156,0.140,0.219,0.213,0.215,0.122,0.078,northwest,4.5,No
2023/02/26,07:30,0.156,0.140,0.220,0.214,0.214,0.123,0.079,north-northwest,2.7,No
2023/02/26,07:40,0.156,0.141,0.219,0.214,0.214,0.123,0.078,west-northwest,3.3,No
2023/02/26,07:50,0.156,0.141,0.221,0.214,0.214,0.122,0.078,west-northwest,3.7,No
2023/02/26,08:00,0.156,0.141,0.218,0.214,0.214,0.122,0.078,northwest,2.5,No
2023/02/26,08:10,0.156,0.140,0.219,0.213,0.214,0.123,0.077,northwest,3.6,No
2023/02/26,08:20,0.155,0.141,0.218,0.215,0.213,0.122,0.077,west-northwest,3.6,No
2023/02/26,08:30,0.155,0.141,0.218,0.215,0.214,0.122,0.078,northwest,3.1,No
2023/02/26,08:40,0.155,0.140,0.220,0.215,0.213,0.123,0.078,north-northwest,3.9,No
2023/02/26,08:50,0.156,0.140,0.220,0.215,0.214,0.123,0.078,northwest,5.1,No
2023/02/26,09:00,0.156,0.141,0.219,0.214,0.212,0.122,0.078,northwest,4.3,No
2023/02/26,09:10,0.156,0.141,0.219,0.214,0.213,0.123,0.078,northwest,5.3,No
2023/02/26,09:20,0.155,0.140,0.218,0.215,0.213,0.123,0.078,north-northwest,4.7,No
2023/02/26,09:30,0.155,0.141,0.219,0.214,0.214,0.123,0.078,north-northwest,3.5,No
2023/02/26,09:40,0.155,0.140,0.219,0.213,0.214,0.123,0.078,northwest,3.1,No
2023/02/26,09:50,0.156,0.141,0.218,0.215,0.215,0.122,0.078,north-northwest,3.4,No
2023/02/26,10:00,0.154,0.141,0.220,0.213,0.214,0.123,0.078,northwest,3.9,No
2023/02/26,10:10,0.155,0.141,0.218,0.212,0.213,0.123,0.079,northwest,2.9,No
2023/02/26,10:20,0.155,0.141,0.219,0.215,0.213,0.123,0.078,west-northwest,3.6,No
2023/02/26,10:30,0.155,0.140,0.217,0.214,0.215,0.123,0.077,west-northwest,6.7,No
2023/02/26,10:40,0.155,0.141,0.219,0.214,0.213,0.122,0.078,west-northwest,4.6,No
2023/02/26,10:50,0.154,0.140,0.217,0.213,0.214,0.123,0.078,west-northwest,7.9,No
2023/02/26,11:00,0.155,0.140,0.217,0.213,0.214,0.122,0.078,west,8.8,No
2023/02/26,11:10,0.155,0.141,0.217,0.215,0.214,0.123,0.079,west-northwest,7.0,No
2023/02/26,11:20,0.155,0.140,0.219,0.214,0.214,0.123,0.078,west-northwest,8.5,No
2023/02/26,11:30,0.155,0.140,0.217,0.215,0.213,0.122,0.078,west-northwest,7.7,No
2023/02/26,11:40,0.155,0.140,0.218,0.214,0.215,0.123,0.078,west-northwest,10.4,No
2023/02/26,11:50,0.155,0.141,0.218,0.213,0.214,0.123,0.078,west-northwest,11.4,No
2023/02/26,12:00,0.154,0.141,0.218,0.214,0.214,0.123,0.079,west-northwest,10.1,No
2023/02/26,12:10,0.155,0.141,0.220,0.215,0.215,0.123,0.078,west-northwest,9.8,No
2023/02/26,12:20,0.156,0.141,0.218,0.215,0.212,0.122,0.079,northwest,11.2,No
2023/02/26,12:30,0.155,0.140,0.219,0.215,0.216,0.122,0.078,west-northwest,8.9,No
2023/02/26,12:40,0.155,0.141,0.219,0.214,0.214,0.123,0.078,west-northwest,11.8,No
2023/02/26,12:50,0.155,0.141,0.220,0.214,0.214,0.123,0.078,west-northwest,10.1,No
2023/02/26,13:00,0.155,0.140,0.220,0.215,0.215,0.122,0.078,west-northwest,11.1,No
2023/02/26,13:10,0.156,0.141,0.218,0.215,0.213,0.124,0.078,west-northwest,10.3,No
2023/02/26,13:20,0.155,0.140,0.220,0.215,0.214,0.123,0.078,northwest,9.6,No
2023/02/26,13:30,0.155,0.140,0.218,0.216,0.214,0.123,0.078,west-northwest,10.4,No
2023/02/26,13:40,0.156,0.140,0.218,0.214,0.214,0.124,0.078,west-northwest,11.7,No
2023/02/26,13:50,0.156,0.141,0.219,0.216,0.216,0.123,0.078,west-northwest,10.7,No
2023/02/26,14:00,0.155,0.141,0.218,0.216,0.213,0.123,0.078,west-northwest,10.7,No
2023/02/26,14:10,0.155,0.140,0.219,0.214,0.216,0.123,0.078,west-northwest,10.9,No
2023/02/26,14:20,0.157,0.140,0.218,0.214,0.214,0.123,0.078,west-northwest,11.7,No
2023/02/26,14:30,0.155,0.141,0.219,0.215,0.214,0.122,0.078,west-northwest,10.3,No
2023/02/26,14:40,0.157,0.140,0.221,0.215,0.216,0.122,0.079,west-northwest,9.2,No
2023/02/26,14:50,0.155,0.140,0.220,0.215,0.213,0.123,0.079,northwest,8.8,No
2023/02/26,15:00,0.155,0.141,0.219,0.216,0.215,0.125,0.079,northwest,10.0,No
2023/02/26,15:10,0.156,0.141,0.219,0.215,0.216,0.122,0.078,west-northwest,7.3,No
2023/02/26,15:20,0.155,0.142,0.220,0.215,0.215,0.122,0.078,northwest,10.1,No
2023/02/26,15:30,0.155,0.141,0.221,0.216,0.216,0.123,0.078,west-northwest,8.1,No
2023/02/26,15:40,0.156,0.142,0.221,0.216,0.214,0.122,0.078,west-northwest,9.8,No
2023/02/26,15:50,0.155,0.142,0.221,0.216,0.216,0.123,0.079,west,8.5,No
2023/02/26,16:00,0.156,0.141,0.222,0.216,0.214,0.122,0.078,west-northwest,8.4,No
2023/02/26,16:10,0.157,0.141,0.220,0.217,0.216,0.123,0.078,west-northwest,7.5,No
2023/02/26,16:20,0.156,0.141,0.220,0.216,0.215,0.124,0.078,west-northwest,4.8,No
2023/02/26,16:30,0.156,0.141,0.220,0.215,0.214,0.124,0.079,west-northwest,6.3,No
2023/02/26,16:40,0.156,0.141,0.219,0.215,0.216,0.123,0.078,northwest,5.9,No
2023/02/26,16:50,0.156,0.142,0.221,0.216,0.215,0.124,0.078,northwest,8.1,No
2023/02/26,17:00,0.156,0.141,0.220,0.216,0.215,0.123,0.079,west-northwest,5.9,No
2023/02/26,17:10,0.157,0.141,0.220,0.216,0.214,0.124,0.078,west-northwest,4.6,No
2023/02/26,17:20,0.157,0.142,0.220,0.217,0.215,0.124,0.079,northwest,5.8,No
2023/02/26,17:30,0.157,0.141,0.220,0.216,0.215,0.123,0.079,northwest,6.8,No
2023/02/26,17:40,0.156,0.142,0.220,0.216,0.215,0.123,0.078,northwest,5.9,No
2023/02/26,17:50,0.157,0.140,0.220,0.215,0.214,0.123,0.078,northwest,7.1,No
2023/02/26,18:00,0.157,0.141,0.220,0.216,0.214,0.123,0.078,northwest,6.5,No
2023/02/26,18:10,0.156,0.142,0.220,0.216,0.215,0.124,0.078,northwest,5.3,No
2023/02/26,18:20,0.157,0.141,0.221,0.215,0.215,0.123,0.079,northwest,4.8,No
2023/02/26,18:30,0.155,0.141,0.220,0.216,0.214,0.123,0.078,northwest,4.8,No
2023/02/26,18:40,0.157,0.141,0.220,0.215,0.215,0.123,0.078,north-northwest,4.1,No
2023/02/26,18:50,0.155,0.142,0.220,0.216,0.214,0.123,0.079,northwest,3.9,No
2023/02/26,19:00,0.156,0.141,0.220,0.215,0.215,0.122,0.079,northwest,3.4,No
2023/02/26,19:10,0.157,0.142,0.220,0.216,0.214,0.124,0.078,northwest,4.3,No
2023/02/26,19:20,0.157,0.141,0.221,0.216,0.215,0.123,0.078,northwest,5.4,No
2023/02/26,19:30,0.155,0.141,0.219,0.216,0.213,0.123,0.079,northwest,4.6,No
2023/02/26,19:40,0.157,0.141,0.220,0.215,0.214,0.122,0.077,north-northwest,3.7,No
2023/02/26,19:50,0.156,0.141,0.218,0.216,0.214,0.123,0.079,northwest,4.3,No
2023/02/26,20:00,0.156,0.140,0.220,0.215,0.214,0.123,0.079,north-northwest,4.7,No
2023/02/26,20:10,0.155,0.141,0.221,0.216,0.215,0.123,0.078,north-northwest,4.4,No
2023/02/26,20:20,0.156,0.141,0.220,0.215,0.214,0.123,0.078,north-northwest,3.3,No
2023/02/26,20:30,0.157,0.142,0.220,0.215,0.215,0.123,0.078,north-northwest,2.7,No
2023/02/26,20:40,0.157,0.142,0.220,0.215,0.214,0.122,0.078,north-northwest,3.0,No
2023/02/26,20:50,0.155,0.141,0.220,0.215,0.215,0.122,0.078,north-northwest,2.9,No
2023/02/26,21:00,0.156,0.141,0.219,0.215,0.214,0.123,0.077,northwest,3.5,No
2023/02/26,21:10,0.156,0.141,0.220,0.215,0.213,0.122,0.078,northwest,3.7,No
2023/02/26,21:20,0.156,0.141,0.221,0.216,0.214,0.123,0.078,west-northwest,3.0,No
2023/02/26,21:30,0.156,0.142,0.220,0.216,0.214,0.124,0.078,west-northwest,3.7,No
2023/02/26,21:40,0.155,0.141,0.221,0.215,0.214,0.124,0.078,west-northwest,4.3,No
2023/02/26,21:50,0.156,0.141,0.220,0.216,0.215,0.124,0.079,west-northwest,4.0,No
2023/02/26,22:00,0.157,0.141,0.220,0.215,0.215,0.123,0.078,west-northwest,4.0,No
2023/02/26,22:10,0.156,0.142,0.219,0.215,0.215,0.123,0.078,west-northwest,4.6,No
2023/02/26,22:20,0.157,0.141,0.220,0.215,0.214,0.122,0.079,west-northwest,4.0,No
2023/02/26,22:30,0.156,0.141,0.219,0.216,0.215,0.124,0.079,west-northwest,3.0,No
2023/02/26,22:40,0.155,0.140,0.220,0.216,0.213,0.123,0.078,west-northwest,2.2,No
2023/02/26,22:50,0.157,0.142,0.221,0.215,0.214,0.123,0.079,west-northwest,2.1,No
2023/02/26,23:00,0.156,0.142,0.220,0.216,0.214,0.123,0.078,west-northwest,1.8,No
2023/02/26,23:10,0.157,0.141,0.220,0.216,0.214,0.123,0.078,west-northwest,2.0,No
2023/02/26,23:20,0.156,0.141,0.219,0.215,0.214,0.123,0.079,west-northwest,1.1,No
2023/02/26,23:30,0.156,0.142,0.219,0.214,0.215,0.123,0.079,west-northwest,0.7,No
2023/02/26,23:40,0.156,0.141,0.221,0.216,0.214,0.123,0.078,northwest,2.3,No
2023/02/26,23:50,0.155,0.141,0.220,0.216,0.214,0.123,0.078,northwest,3.1,No
